Regional Weather Roundup
Issued by NWS

Home | Current Version | Previous Version | Text Only | Print | Product List | Glossary Off
Versions: 1 2 3 4 5 6 7 8 9 10 11 12 13 14 15 16 17 18 19 20 21 22 23 24 25 26 27 28 29 30 31 32 33 34 35 36 37 38 39 40 41 42 43 44 45 46 47 48 49 50

000
ASUS43 KMKX 051000
RWRWI

WISCONSIN REGIONAL WEATHER ROUNDUP
NATIONAL WEATHER SERVICE MILWAUKEE/SULLIVAN WI
500 AM CDT WED AUG 05 2015

NOTE: "FAIR" INDICATES FEW OR NO CLOUDS BELOW 12,000 FEET WITH NO
SIGNIFICANT WEATHER AND/OR OBSTRUCTIONS TO VISIBILITY.

WIZ001-002-006>008-014>016-023>028-051100-
NORTHWEST WISCONSIN

CITY           SKY/WX    TMP DP  RH WIND       PRES   REMARKS
SUPERIOR ARPT  PTCLDY    44  44 100 CALM      30.09S FOG
ASHLAND        FOG       45  45 100 CALM      30.10R VSB 3/4
HAYWARD        CLEAR     46  43  89 CALM      30.10R
SIREN          CLEAR     51  50  95 NE3       30.08S
CUMBERLAND     CLEAR     50  48  93 CALM      30.08S
RICE LAKE      CLEAR     50  49  95 N3        30.09S
CHETEK         CLEAR     53  52  97 CALM      30.08S
LADYSMITH      MOCLDY    53  51  94 NE3       30.09S
EAU CLAIRE     NOT AVBL
MENOMONIE      CLEAR     57  54  89 N3        30.07R
NEW RICHMOND   CLEAR     54  53  95 CALM      30.07S
OSCEOLA        CLEAR     57  57  99 CALM      30.09S
$$

WIZ003>005-009-010-017-018-051100-
NORTH CENTRAL WISCONSIN

CITY           SKY/WX    TMP DP  RH WIND       PRES   REMARKS
MANITOWISH WTR FOG       41  41 100 CALM      30.10R VSB 1/2
ARBOR VITAE    CLEAR     46  44  93 CALM      30.10R
WOODRUFF       CLEAR     46  44  93 CALM      30.10R
RHINELANDER    CLEAR     46  44  93 CALM      30.10S
EAGLE RIVER    PTCLDY    41  41 100 CALM      30.10R
LAND O LAKES   CLEAR     39  39 100 CALM      30.11R FOG
PHILLIPS       CLEAR     48  48 100 CALM      30.09S
TOMAHAWK       CLOUDY    53  51  94 CALM      30.09S
MEDFORD        PTCLDY    49  49  98 CALM      30.08S
MERRILL        NOT AVBL
$$

WIZ029-030-035-036-043>047-051100-
CENTRAL WISCONSIN

CITY           SKY/WX    TMP DP  RH WIND       PRES   REMARKS
WAUSAU         MOCLDY    57  53  86 CALM      30.06S
MOSINEE        PTCLDY    52  52 100 NE6       30.08R
MARSHFIELD     CLEAR     57  51  80 NE8       30.07R
STEVENS POINT  CLOUDY    54  52  95 CALM      30.07S
WAUPACA        PTCLDY    56  56  97 CALM      30.06S
WAUTOMA        NOT AVBL
WISC RAPIDS    CLEAR     57  52  83 NE3       30.07R
CAMP DOUGLAS   CLEAR     46  46 100 W1        30.04S FOG
$$

WIZ011>013-019>022-031-037>040-048>050-051100-
NORTHEAST WISCONSIN

CITY           SKY/WX    TMP DP  RH WIND       PRES   REMARKS
ANTIGO         CLOUDY    52  51  97 NE3       30.09R
SHAWANO        CLOUDY    61  57  86 NE3       30.07S
OCONTO         MOCLDY    54  54 100 CALM      30.07R
STURGEON BAY   CLEAR     57  52  82 NE3       30.09R
GREEN BAY      CLOUDY    59  57  93 N3        30.06S
MANITOWOC      NOT AVBL
APPLETON       CLEAR     59  55  88 NE6       30.06R
CLINTONVILLE   MOCLDY    55  54  94 CALM      30.06S
OSHKOSH        MOCLDY    57  54  89 CALM      30.04R
$$

WIZ032>034-041-042-053>061-051100-
SOUTHWEST WISCONSIN

CITY           SKY/WX    TMP DP  RH WIND       PRES   REMARKS
LA CROSSE      CLEAR     57  56  96 CALM      30.05R
SPARTA         CLEAR     48  47  95 CALM      30.06S
VIROQUA        CLEAR     55  55 100 CALM      30.06S
BOSCOBEL       FOG       52  51  97 CALM      30.06S VSB 1/2
PRAIRIE DU CHI CLEAR     56  54  93 CALM      30.05S
PLATTEVILLE    CLEAR     56  53  88 SW3       30.06R
$$

WIZ056-057-062-063-064-067-068-051100-
SOUTH CENTRAL WISCONSIN

CITY           SKY/WX    TMP DP  RH WIND       PRES   REMARKS
REEDSBURG      CLEAR     53  53  99 CALM      30.05R
BARABOO/DELLS  CLEAR     55  52  90 CALM      30.05S
LONE ROCK      PTCLDY    51  49  92 CALM      30.06R
MINERAL POINT  CLEAR     55  54  94 CALM      30.06S
MADISON        CLEAR     55  53  93 CALM      30.05R
MIDDLETON      CLEAR     53  53  97 CALM      30.05S
WATERTOWN      CLEAR     54  54 100 CALM      30.04R
MONROE         FAIR      64  52  63 NW7       30.05S
JANESVILLE     CLEAR     55  54  94 CALM      30.05R
$$

WIZ051-052-058>065-066-070>072-051100-
SOUTHEAST WISCONSIN

CITY           SKY/WX    TMP DP  RH WIND       PRES   REMARKS
MILWAUKEE      PTCLDY    63  54  72 NW5       30.03R
WAUKESHA       CLEAR     54  52  94 CALM      30.05S
MILWAUKEE/TIMM CLEAR     59  54  82 CALM      30.04S
RACINE         CLEAR     61  55  81 CALM      30.05R
BURLINGTON     CLEAR     49  49  97 SW3       30.04R FOG
KENOSHA        CLEAR     57  55  93 SW8       30.04R
FOND DU LAC    PTCLDY    54  52  93 NE5       30.05R
SHEBOYGAN      CLEAR     58  57  97 CALM      30.04S
WEST BEND        N/A     54  52  94 CALM      30.04S FOG
JUNEAU         CLEAR     55  54  95 CALM      30.05S
$$

LSZ147-162-051100-
LAKE SUPERIOR

STATION/POSITION TIME  TEMP    WIND        PRES    WAVE
                       AIR SEA DIR/SP/G            HT/PER
                 (UTC) (F)     (DEG/KT/KT) (MB)    (FT/S)
W MID LAKE BUOY  0850   57 56  300/  8/ 10 1018.6S   0
DEVILS ISLAND    0900   58     330/  7/  8 1018.9F
PORT WING        0940   51     160/  3/  5 1019.3R
SAXON HARBOR     0940   49      CALM  /  5 1018.6R
$$

LMZ867-665-643>646-051100-
LAKE MICHIGAN

STATION/POSITION TIME  TEMP    WIND        PRES    WAVE
                       AIR SEA DIR/SP/G            HT/PER
                 (UTC) (F)     (DEG/KT/KT) (MB)    (FT/S)
CHAMBERS ISLAND  0900   63     360/  9/ 11 1017.9R
S GREEN BAY BUOY 0930   64 71  100/  8/ 10 1019.2R
N MID LAKE BUOY  0850   61 68  320/ 10/ 12 1017.2F   1
NORTHPORT PIER   0900   63     350/  7/ 12 1017.9R
SISTER BAY       0918   58      CALM  /  3   N/A
ALGOMA LAKESHORE 0943          330/  6/  6   N/A
KEWAUNEE LAKESHO 0900   60      20/  5/  6 1017.0R
SHEBOYGAN LAKESH 0900   62     350/  5/  6 1017.2R
PORT WASHINGTON  0900   62     250/  2/  3 1017.3S
ATWATER BUOY     0900   61 59  310/  4/  4 1018.1S
MILWAUKEE LAKESH 0900   66     330/  4/  5   N/A
KENOSHA   LAKESH 0900   65     270/  8/  9 1016.6S
$$

TC  - TEMPERATURE IN CELSIUS
VSB - VISIBILITY IN STATUTE MILES
WCI - WIND CHILL INDEX
HX  - HEAT INDEX



USA.gov is the U.S. government's official web portal to all federal, state and local government web resources and services.